FW7858 Weather Reports


Display with metric or nautical units.
time (UTC)temp
F
wind
direction
speed
MPH
gust
MPH
rain 1hr
in
rain 24hr
in
rain mn
in
humidity
%
barometer
mb
20260903144526 74 347 1.0 5.0 0.00 0.00 0.00 82 1004.6
20260903144025 73 355 2.0 8.0 0.00 0.00 0.00 82 1004.8
20260903143523 73 314 4.0 8.0 0.00 0.00 0.00 81 1004.8
20260903143022 73 331 3.0 9.0 0.00 0.00 0.00 82 1004.8
20260903142526 72 355 5.0 9.0 0.00 0.00 0.00 82 1004.9
20260903142022 72 346 4.0 8.0 0.00 0.00 0.00 82 1004.9
20260903141519 72 355 2.0 8.0 0.00 0.00 0.00 82 1005.1
20260903141019 72 360 3.0 8.0 0.00 0.00 0.00 82 1005.1
20260903140518 72 355 2.0 8.0 0.00 0.00 0.00 82 1005.1
20260903140017 71 5 4.0 8.0 0.00 0.00 0.00 82 1005.1
20260903135515 71 5 3.0 8.0 0.00 0.00 0.00 83 1005.2
20260903135015 71 11 3.0 8.0 0.00 0.00 0.00 83 1005.3
20260903134516 71 355 3.0 8.0 0.00 0.00 0.00 83 1005.2
20260903134013 70 337 2.0 6.0 0.00 0.00 0.00 83 1005.2
20260903133513 70 345 3.0 8.0 0.00 0.00 0.00 83 1005.1
20260903133015 70 360 3.0 8.0 0.00 0.00 0.00 83 1005.3
20260903132514 70 360 3.0 10.0 0.00 0.00 0.00 84 1005.3
20260903132012 69 355 4.0 10.0 0.00 0.00 0.00 83 1005.4
20260903131511 69 5 4.0 8.0 0.00 0.00 0.00 83 1005.5
20260903131011 69 355 4.0 8.0 0.00 0.00 0.00 84 1005.5
20260903130510 69 10 2.0 5.0 0.00 0.00 0.00 84 1005.5
20260903130009 69 298 2.0 8.0 0.00 0.00 0.00 83 1005.6
20260903125509 69 355 2.0 9.0 0.00 0.00 0.00 83 1005.6
20260903125009 69 348 4.0 10.0 0.00 0.00 0.00 83 1005.7
20260903124508 69 5 5.0 10.0 0.00 0.00 0.00 83 1005.8
20260903124008 69 5 3.0 6.0 0.00 0.00 0.00 83 1005.7
20260903123511 68 360 3.0 10.0 0.00 0.00 0.00 83 1005.8
20260903123007 68 360 4.0 10.0 0.00 0.00 0.00 83 1005.8
20260903122510 68 355 5.0 10.0 0.00 0.00 0.00 82 1005.9
20260903122006 68 355 3.0 9.0 0.00 0.00 0.00 82 1005.8
20260903121516 68 355 2.0 8.0 0.00 0.00 0.00 82 1005.8
20260903121006 68 5 3.0 10.0 0.00 0.00 0.00 82 1005.7
20260903120505 68 360 4.0 9.0 0.00 0.00 0.00 82 1005.8
20260903120005 68 360 4.0 8.0 0.00 0.00 0.00 82 1005.8
20260903115505 68 355 4.0 10.0 0.00 0.00 0.00 82 1005.7
20260903115003 68 5 4.0 10.0 0.00 0.00 0.00 82 1005.8
20260903114503 68 355 3.0 10.0 0.00 0.00 0.00 82 1005.8
20260903114004 68 360 5.0 9.0 0.00 0.00 0.00 82 1006.0
20260903113501 68 5 5.0 9.0 0.00 0.00 0.00 81 1006.1
20260903113002 69 355 4.0 8.0 0.00 0.00 0.00 81 1006.2
20260903112501 69 355 3.0 8.0 0.00 0.00 0.00 81 1006.1
20260903112101 69 351 4.0 8.0 0.00 0.00 0.00 81 1006.2
20260903111602 69 355 4.0 9.0 0.00 0.00 0.00 80 1006.4
20260903111100 69 360 4.0 9.0 0.00 0.00 0.00 80 1006.4
20260903111002 69 360 4.0 9.0 0.00 0.00 0.00 80 1006.4
20260903110602 69 350 4.0 9.0 0.00 0.00 0.00 80 1006.3
20260903110103 69 338 3.0 10.0 0.00 0.00 0.00 80 1006.2
20260903105600 69 355 5.0 8.0 0.00 0.00 0.00 80 1006.1
20260903105058 69 349 4.0 9.0 0.00 0.00 0.00 80 1006.1
20260903104558 69 355 4.0 9.0 0.00 0.00 0.00 80 1006.2
20260903104058 69 9 4.0 9.0 0.00 0.00 0.00 79 1006.2
20260903103559 69 9 5.0 9.0 0.00 0.00 0.00 80 1006.2
20260903103057 69 11 4.0 6.0 0.00 0.00 0.00 79 1006.3
20260903102557 69 5 3.0 10.0 0.00 0.00 0.00 79 1006.3
20260903102055 69 360 4.0 10.0 0.00 0.00 0.00 79 1006.3
20260903101555 69 355 4.0 8.0 0.00 0.00 0.00 79 1006.3
20260903101056 69 355 2.0 9.0 0.00 0.00 0.00 79 1006.3
20260903100554 69 337 3.0 9.0 0.00 0.00 0.00 79 1006.4
20260903100054 69 360 4.0 8.0 0.00 0.00 0.00 79 1006.4
20260903095553 69 360 3.0 9.0 0.00 0.00 0.00 79 1006.5
20260903095052 69 5 3.0 10.0 0.00 0.00 0.00 79 1006.4
20260903094555 69 360 3.0 9.0 0.00 0.00 0.00 79 1006.3
20260903094053 69 355 3.0 6.0 0.00 0.00 0.00 79 1006.4
20260903093552 69 355 3.0 10.0 0.00 0.00 0.00 79 1006.5
20260903093053 69 360 4.0 10.0 0.00 0.00 0.00 79 1006.5
20260903092550 69 360 4.0 8.0 0.00 0.00 0.00 79 1006.5
20260903092051 69 360 3.0 8.0 0.00 0.00 0.00 79 1006.6
20260903091549 69 351 3.0 8.0 0.00 0.00 0.00 79 1006.7
20260903091049 69 5 3.0 8.0 0.00 0.00 0.00 79 1006.7
20260903090548 69 5 3.0 6.0 0.00 0.00 0.00 79 1006.8
20260903090050 68 9 2.0 6.0 0.00 0.00 0.00 79 1006.9
20260903085548 69 9 3.0 10.0 0.00 0.00 0.00 78 1006.8
20260903085048 68 9 3.0 8.0 0.00 0.00 0.00 79 1006.9
20260903084547 68 355 4.0 8.0 0.00 0.00 0.00 79 1006.9
20260903084047 68 5 2.0 6.0 0.00 0.00 0.00 78 1006.8
20260903083550 68 355 3.0 6.0 0.00 0.00 0.00 78 1006.8
20260903083048 68 5 3.0 6.0 0.00 0.00 0.00 78 1006.7
20260903082546 68 5 3.0 6.0 0.00 0.00 0.00 78 1006.7
20260903082045 69 355 2.0 8.0 0.00 0.00 0.00 78 1006.7
20260903081545 69 5 2.0 8.0 0.00 0.00 0.00 78 1006.7
20260903081045 69 355 2.0 6.0 0.00 0.00 0.00 78 1006.8
20260903080542 69 360 2.0 6.0 0.00 0.00 0.00 78 1006.9
20260903080041 69 5 3.0 6.0 0.00 0.00 0.00 78 1007.0
20260903075540 69 355 2.0 6.0 0.00 0.00 0.00 78 1007.1
20260903075040 69 355 3.0 6.0 0.00 0.00 0.00 77 1007.2
20260903074538 69 351 2.0 8.0 0.00 0.00 0.00 77 1007.3
20260903074038 69 5 3.0 8.0 0.00 0.00 0.00 77 1007.3
20260903073538 69 9 2.0 6.0 0.00 0.00 0.00 77 1007.3
20260903073047 69 355 3.0 9.0 0.00 0.00 0.00 77 1007.4
20260903072538 69 360 3.0 9.0 0.00 0.00 0.00 77 1007.4
20260903072039 69 360 3.0 8.0 0.00 0.00 0.00 77 1007.5
20260903071537 69 355 3.0 9.0 0.00 0.00 0.00 77 1007.5
20260903071035 69 5 4.0 9.0 0.00 0.00 0.00 77 1007.5
20260903070535 69 360 2.0 6.0 0.00 0.00 0.00 77 1007.6
20260903070035 69 5 2.0 5.0 0.00 0.00 0.00 77 1007.6
20260903065535 69 5 2.0 9.0 0.00 0.00 0.00 77 1007.6
20260903065034 69 360 3.0 9.0 0.00 0.00 0.00 78 1007.5
20260903064533 69 9 3.0 7.0 0.00 0.00 0.00 78 1007.6
20260903064034 69 5 2.0 4.0 0.00 0.00 0.00 78 1007.7
20260903063533 69 5 1.0 5.0 0.00 0.00 0.00 78 1007.8
20260903063032 69 5 2.0 5.0 0.00 0.00 0.00 78 1007.7
20260903062532 69 5 2.0 6.0 0.00 0.00 0.00 78 1007.7
20260903062031 69 10 2.0 6.0 0.00 0.00 0.00 78 1007.7
20260903061549 69 5 2.0 5.0 0.00 0.00 0.00 78 1007.8
20260903061030 69 5 2.0 5.0 0.00 0.00 0.00 78 1007.8
20260903060530 69 5 3.0 5.0 0.00 0.00 0.00 78 1007.9
20260903060028 69 360 2.0 6.0 0.00 0.00 0.00 78 1007.8
20260903055528 69 5 3.0 6.0 0.00 0.00 0.00 78 1007.8
20260903055027 69 360 3.0 7.0 0.00 0.00 0.00 78 1007.8
20260903054527 69 5 3.0 5.0 0.00 0.00 0.00 78 1007.8
20260903054027 69 5 2.0 5.0 0.00 0.00 0.00 78 1007.8
20260903053527 70 5 2.0 5.0 0.00 0.00 0.00 78 1007.8
20260903053025 70 5 2.0 6.0 0.00 0.00 0.00 78 1007.9
20260903052525 70 9 3.0 6.0 0.00 0.00 0.00 78 1007.9
20260903052026 70 5 2.0 6.0 0.00 0.00 0.00 78 1007.9
20260903051523 70 12 2.0 6.0 0.00 0.00 0.00 77 1008.0
20260903051021 70 5 3.0 6.0 0.00 0.00 0.00 77 1008.1
20260903050520 70 5 2.0 6.0 0.00 0.00 0.00 77 1008.2
20260903050020 70 360 2.0 5.0 0.00 0.00 0.00 77 1008.2
20260903045520 70 9 1.0 8.0 0.00 0.00 0.00 77 1008.2
20260903045019 70 360 2.0 6.0 0.00 0.00 0.00 77 1008.2
20260903044519 71 5 2.0 6.0 0.00 0.00 0.00 76 1008.2
20260903044019 71 360 3.0 6.0 0.00 0.00 0.00 76 1008.2
20260903043520 71 360 3.0 6.0 0.00 0.00 0.00 76 1008.2
20260903043019 71 5 3.0 6.0 0.00 0.00 0.00 76 1008.2
20260903042522 71 360 2.0 4.0 0.00 0.00 0.00 76 1008.2
20260903042019 71 355 1.0 4.0 0.00 0.00 0.00 77 1008.3
20260903041529 71 360 1.0 4.0 0.00 0.00 0.00 77 1008.3
20260903041018 71 360 1.0 4.0 0.00 0.00 0.00 76 1008.4
20260903040518 71 360 1.0 5.0 0.00 0.00 0.00 76 1008.4
20260903040019 71 5 1.0 6.0 0.00 0.00 0.00 76 1008.4
20260903035519 71 5 2.0 8.0 0.00 0.00 0.00 76 1008.4
20260903035020 71 5 4.0 8.0 0.00 0.00 0.00 76 1008.5
20260903034517 71 9 3.0 8.0 0.00 0.00 0.00 76 1008.5
20260903034017 71 5 3.0 8.0 0.00 0.00 0.00 76 1008.5
20260903033517 71 355 3.0 6.0 0.00 0.00 0.00 77 1008.5
20260903033018 71 5 3.0 5.0 0.00 0.00 0.00 77 1008.5
20260903032517 71 360 2.0 4.0 0.00 0.00 0.00 77 1008.5
20260903032017 71 360 2.0 4.0 0.00 0.00 0.00 77 1008.6
20260903031523 71 355 2.0 4.0 0.00 0.00 0.00 77 1008.6
20260903031017 71 347 1.0 3.0 0.00 0.00 0.00 77 1008.5
20260903030516 71 347 2.0 3.0 0.00 0.00 0.00 77 1008.5
20260903030017 71 346 1.0 3.0 0.00 0.00 0.00 77 1008.5
20260903025519 71 346 1.0 4.0 0.00 0.00 0.00 78 1008.5
20260903025015 71 346 1.0 4.0 0.00 0.00 0.00 78 1008.6
20260903024515 70 344 2.0 4.0 0.00 0.00 0.00 78 1008.6
20260903024016 70 344 1.0 3.0 0.00 0.00 0.00 77 1008.6
20260903023516 70 344 1.0 3.0 0.00 0.00 0.00 77 1008.5
20260903023015 70 344 0.0 1.0 0.00 0.00 0.00 77 1008.5
20260903022515 70 344 0.0 2.0 0.00 0.00 0.00 76 1008.5
20260903022014 71 344 0.0 2.0 0.00 0.00 0.00 75 1008.5
20260903021517 71 344 0.0 1.0 0.00 0.00 0.00 75 1008.6
20260903021015 71 344 0.0 2.0 0.00 0.00 0.00 74 1008.5
20260903020513 71 344 0.0 3.0 0.00 0.00 0.00 74 1008.4
20260903020030 72 344 1.0 3.0 0.00 0.00 0.00 73 1008.4
20260903015514 72 344 1.0 3.0 0.00 0.00 0.00 73 1008.3
20260903015013 72 344 1.0 3.0 0.00 0.00 0.00 73 1008.3
20260903014513 72 344 1.0 3.0 0.00 0.00 0.00 72 1008.2
20260903014016 73 344 2.0 3.0 0.00 0.00 0.00 71 1008.2
20260903013514 73 344 1.0 3.0 0.00 0.00 0.00 71 1008.2
20260903013013 73 344 1.0 3.0 0.00 0.00 0.00 70 1008.2
20260903012516 73 344 0.0 3.0 0.00 0.00 0.00 70 1008.2
20260903012015 73 344 0.0 3.0 0.00 0.00 0.00 69 1008.1
20260903011513 74 344 1.0 3.0 0.00 0.00 0.00 69 1008.1
20260903011012 74 344 1.0 3.0 0.00 0.00 0.00 68 1008.1
20260903010511 74 344 1.0 3.0 0.00 0.00 0.00 67 1008.1
20260903010013 74 222 1.0 3.0 0.00 0.00 0.00 67 1008.0
20260903005512 75 149 2.0 3.0 0.00 0.00 0.00 66 1008.0
20260903005014 75 5 0.0 2.0 0.00 0.00 0.00 66 1008.0
20260903004511 75 5 0.0 3.0 0.00 0.00 0.00 66 1008.0
20260903004011 75 5 1.0 3.0 0.00 0.00 0.00 65 1008.1
20260903003511 76 5 1.0 4.0 0.00 0.00 0.00 65 1007.9
20260903003011 76 5 2.0 4.0 0.00 0.00 0.00 64 1007.8
20260903002510 76 5 2.0 4.0 0.00 0.00 0.00 63 1007.8
20260903002014 76 5 1.0 4.0 0.00 0.00 0.00 63 1007.9
20260903001512 77 5 1.0 4.0 0.00 0.00 0.00 63 1007.8
20260903001015 77 5 1.0 3.0 0.00 0.00 0.00 62 1007.8
20260903000509 77 5 1.0 3.0 0.00 0.00 0.00 61 1008.0
20260903000011 77 5 0.0 4.0 0.00 0.00 0.00 61 1007.9
20260902235509 77 5 2.0 4.0 0.00 0.00 0.00 60 1007.8
20260902235008 77 5 2.0 4.0 0.00 0.00 0.00 59 1007.9
20260902234509 77 10 2.0 4.0 0.00 0.00 0.00 58 1007.9
20260902234008 78 11 2.0 4.0 0.00 0.00 0.00 57 1007.9
20260902233611 78 9 1.0 5.0 0.00 0.00 0.00 57 1007.9
20260902233008 78 9 3.0 5.0 0.00 0.00 0.00 56 1007.8
20260902232507 78 5 3.0 8.0 0.00 0.00 0.00 55 1007.9
20260902232008 78 9 2.0 5.0 0.00 0.00 0.00 56 1008.0
20260902231507 79 9 3.0 6.0 0.00 0.00 0.00 56 1008.0
20260902231009 79 11 3.0 6.0 0.00 0.00 0.00 57 1008.1
20260902230506 79 5 2.0 5.0 0.00 0.00 0.00 56 1008.1
20260902230006 79 10 3.0 6.0 0.00 0.00 0.00 55 1008.1
20260902225506 79 11 3.0 6.0 0.00 0.00 0.00 53 1008.1
20260902225006 79 11 3.0 5.0 0.00 0.00 0.00 52 1008.0
20260902224506 80 11 3.0 5.0 0.00 0.00 0.00 50 1008.0
20260902224004 80 5 2.0 6.0 0.00 0.00 0.00 50 1008.1
20260902223505 80 9 3.0 6.0 0.00 0.00 0.00 48 1008.1
20260902223007 80 5 1.0 6.0 0.00 0.00 0.00 48 1008.1
20260902222509 81 5 1.0 4.0 0.00 0.00 0.00 49 1008.1
20260902222004 81 5 1.0 6.0 0.00 0.00 0.00 48 1008.1
20260902221508 81 5 3.0 6.0 0.00 0.00 0.00 46 1008.1
20260902221003 81 5 1.0 5.0 0.00 0.00 0.00 48 1008.1
20260902220503 81 5 1.0 5.0 0.00 0.00 0.00 51 1008.3
20260902220002 80 360 2.0 6.0 0.00 0.00 0.00 50 1008.3
20260902215502 80 360 2.0 6.0 0.00 0.00 0.00 52 1008.3
20260902215001 80 5 1.0 5.0 0.00 0.00 0.00 51 1008.4
20260902214503 80 10 0.0 6.0 0.00 0.00 0.00 51 1008.5
20260902214103 81 10 2.0 6.0 0.00 0.00 0.00 51 1008.4
20260902213559 81 9 2.0 6.0 0.00 0.00 0.00 51 1008.4
20260902213104 81 5 2.0 6.0 0.00 0.00 0.00 51 1008.4
20260902212559 81 9 3.0 6.0 0.00 0.00 0.00 50 1008.4
20260902212058 81 11 2.0 5.0 0.00 0.00 0.00 52 1008.5
20260902211601 81 9 1.0 5.0 0.00 0.00 0.00 52 1008.4
20260902211059 81 150 0.0 9.0 0.00 0.00 0.00 51 1008.5
20260902210557 81 5 2.0 9.0 0.00 0.00 0.00 49 1008.6
20260902210055 81 346 3.0 8.0 0.00 0.00 0.00 50 1008.7
20260902205555 81 5 3.0 6.0 0.00 0.00 0.00 49 1008.7
20260902205054 81 5 1.0 6.0 0.00 0.00 0.00 51 1008.8
20260902204553 80 5 2.0 3.0 0.00 0.00 0.00 50 1008.9
20260902204052 80 5 0.0 4.0 0.00 0.00 0.00 49 1009.0
20260902203552 80 5 1.0 4.0 0.00 0.00 0.00 46 1009.0
20260902203052 81 5 2.0 4.0 0.00 0.00 0.00 46 1009.0
20260902202551 80 5 0.0 4.0 0.00 0.00 0.00 45 1009.0
20260902202050 80 5 0.0 4.0 0.00 0.00 0.00 49 1009.0
20260902201556 80 5 2.0 4.0 0.00 0.00 0.00 45 1009.0
20260902201050 81 5 1.0 8.0 0.00 0.00 0.00 47 1009.1
20260902200549 81 5 3.0 8.0 0.00 0.00 0.00 44 1009.1
20260902200048 80 10 2.0 5.0 0.00 0.00 0.00 46 1009.2
20260902195548 80 5 2.0 6.0 0.00 0.00 0.00 49 1009.2
20260902195048 81 355 2.0 6.0 0.00 0.00 0.00 51 1009.3
20260902194553 81 9 2.0 6.0 0.00 0.00 0.00 50 1009.3
20260902194048 80 9 2.0 9.0 0.00 0.00 0.00 51 1009.3
20260902193546 80 10 4.0 9.0 0.00 0.00 0.00 50 1009.3
20260902193046 81 13 3.0 9.0 0.00 0.00 0.00 50 1009.4
20260902192545 81 140 1.0 6.0 0.00 0.00 0.00 50 1009.3
20260902192045 81 5 2.0 6.0 0.00 0.00 0.00 51 1009.4
20260902191544 81 355 0.0 6.0 0.00 0.00 0.00 52 1009.5
20260902191042 81 319 1.0 5.0 0.00 0.00 0.00 52 1009.6
20260902190542 80 5 2.0 5.0 0.00 0.00 0.00 52 1009.7
20260902190043 80 360 1.0 5.0 0.00 0.00 0.00 53 1009.7
20260902185542 80 5 0.0 6.0 0.00 0.00 0.00 53 1009.7
20260902185040 80 9 3.0 6.0 0.00 0.00 0.00 51 1009.8
20260902184541 79 9 1.0 5.0 0.00 0.00 0.00 55 1009.8
20260902184037 79 12 0.0 9.0 0.00 0.00 0.00 55 1009.8
20260902183537 78 5 4.0 9.0 0.00 0.00 0.00 53 1010.0
20260902183036 78 5 2.0 9.0 0.00 0.00 0.00 53 1009.9
20260902182535 78 5 4.0 9.0 0.00 0.00 0.00 49 1009.9
20260902182039 78 5 4.0 8.0 0.00 0.00 0.00 52 1009.9
20260902181538 78 9 1.0 8.0 0.00 0.00 0.00 57 1009.9
20260902181034 78 9 2.0 8.0 0.00 0.00 0.00 58 1010.0
20260902180532 78 355 3.0 7.0 0.00 0.00 0.00 57 1010.1
20260902180030 77 360 1.0 3.0 0.00 0.00 0.00 60 1010.2
20260902175530 77 360 2.0 6.0 0.00 0.00 0.00 61 1010.3
20260902175030 77 360 3.0 4.0 0.00 0.00 0.00 59 1010.3
20260902174529 77 355 1.0 4.0 0.00 0.00 0.00 59 1010.4
20260902174028 76 360 0.0 2.0 0.00 0.00 0.00 60 1010.4
20260902173528 76 360 0.0 4.0 0.00 0.00 0.00 60 1010.4
20260902173028 76 360 2.0 5.0 0.00 0.00 0.00 59 1010.4
20260902172527 77 5 3.0 5.0 0.00 0.00 0.00 58 1010.3
20260902172026 77 355 2.0 6.0 0.00 0.00 0.00 57 1010.3
20260902171526 76 355 3.0 9.0 0.00 0.00 0.00 62 1010.3
20260902171028 76 5 1.0 9.0 0.00 0.00 0.00 60 1010.1
20260902170522 76 5 2.0 8.0 0.00 0.00 0.00 62 1010.1
20260902170022 76 355 3.0 8.0 0.00 0.00 0.00 66 1010.2
20260902165521 76 355 2.0 6.0 0.00 0.00 0.00 64 1010.2
20260902165020 76 355 3.0 8.0 0.00 0.00 0.00 62 1010.2
20260902164518 75 5 2.0 9.0 0.00 0.00 0.00 65 1010.2
20260902164017 75 5 4.0 9.0 0.00 0.00 0.00 64 1010.3
20260902163516 75 355 4.0 9.0 0.00 0.00 0.00 65 1010.4
20260902163016 75 360 4.0 9.0 0.00 0.00 0.00 65 1010.4
20260902162514 74 5 4.0 8.0 0.00 0.00 0.00 67 1010.4
20260902162015 74 5 3.0 8.0 0.00 0.00 0.00 68 1010.5
20260902161512 73 360 3.0 5.0 0.00 0.00 0.00 70 1010.6
20260902161012 73 5 2.0 5.0 0.00 0.00 0.00 70 1010.6
20260902160514 73 5 3.0 5.0 0.00 0.00 0.00 71 1010.6
20260902160012 73 5 1.0 4.0 0.00 0.00 0.00 72 1010.6
20260902155510 73 5 2.0 6.0 0.00 0.00 0.00 72 1010.4
20260902155011 73 5 3.0 6.0 0.00 0.00 0.00 69 1010.3
20260902154510 73 5 3.0 5.0 0.00 0.00 0.00 69 1010.4
20260902154009 73 5 2.0 5.0 0.00 0.00 0.00 71 1010.5
20260902153509 73 360 3.0 5.0 0.00 0.00 0.00 72 1010.5
20260902153009 73 5 1.0 4.0 0.00 0.00 0.00 74 1010.5
20260902152510 72 5 2.0 4.0 0.00 0.00 0.00 75 1010.3
20260902152005 72 5 2.0 4.0 0.00 0.00 0.00 75 1010.4
20260902151505 72 5 1.0 3.0 0.00 0.00 0.00 75 1010.5
20260902151007 72 5 1.0 3.0 0.00 0.00 0.00 74 1010.5
20260902150504 72 5 1.0 3.0 0.00 0.00 0.00 74 1010.6
20260902150006 72 5 2.0 3.0 0.00 0.00 0.00 73 1010.6
20260902145504 72 5 1.0 4.0 0.00 0.00 0.00 74 1010.5